Wind_Speed
49 52 53 57 58 58 61 64 66 68 68 65 63 63 63 63 64 65 66 68 67 63 63 65 65 66 68 70 70 71 71 71 74 78 80 81 83 85 87 90 92 94 96 98 100 101 102 101 99 97 96 95
50 52 55 58 62 62 64 68 70 70 71 70 70 71 70 68 68 68 68 70 70 68 66 67 68 68 70 70 70 70 71 69 70 74 77 79 81 82 84 86 89 91 93 94 95 97 98 99 99 98 96 95
52 54 58 60 62 64 66 69 70 69 71 72 72 72 71 70 70 69 69 71 72 70 69 69 70 69 69 70 69 69 70 69 68 70 72 76 79 80 82 83 85 87 88 89 90 90 92 94 96 97 96 96
54 57 61 61 62 64 66 67 68 69 71 72 72 73 72 71 70 70 71 71 71 70 69 68 68 68 68 68 68 68 69 69 68 67 68 71 75 77 79 81 82 83 84 84 85 85 87 88 90 92 93 94
57 59 61 61 62 64 66 67 67 69 70 71 72 73 74 73 72 71 70 70 70 70 68 67 66 67 67 67 67 66 66 65 65 65 66 69 72 73 75 77 78 79 80 80 80 81 83 84 85 85 87 89
58 60 61 62 63 63 65 67 67 69 70 71 71 71 72 73 72 70 68 68 68 69 68 66 66 66 66 66 65 64 63 61 61 61 63 66 69 71 72 73 74 75 75 75 76 77 78 79 79 80 81 83
60 62 62 63 63 64 65 66 67 68 69 70 71 71 72 73 72 70 68 68 67 67 67 66 64 64 65 64 63 62 60 58 57 56 58 61 63 66 69 70 70 71 70 70 70 70 71 72 73 74 76 79
61 63 64 65 65 65 66 66 68 68 68 69 70 72 72 73 73 72 70 69 69 67 67 66 64 64 64 65 63 60 58 57 55 53 55 57 59 61 64 66 68 68 67 65 65 62 62 64 66 69 71 75
63 65 66 67 67 67 67 67 68 69 69 69 70 72 73 74 74 73 71 70 70 69 69 67 65 64 65 66 65 61 59 58 57 56 58 58 59 61 62 63 65 67 68 67 66 61 58 60 63 64 66 71
65 67 67 68 69 69 68 68 69 70 70 70 71 73 75 76 75 74 72 71 71 71 71 70 68 66 67 68 66 65 64 62 62 62 63 63 62 64 65 64 64 66 69 71 71 68 64 63 66 65 63 65
66 67 68 69 71 71 71 70 71 71 71 72 73 74 77 78 77 75 74 73 73 73 73 73 72 70 70 71 68 68 68 66 66 67 66 66 65 65 67 67 66 66 68 71 73 73 71 69 70 69 66 65
67 67 69 70 72 73 74 73 73 74 74 74 76 77 78 79 79 77 76 76 75 75 77 76 75 74 73 73 73 71 71 69 69 70 70 69 69 68 67 67 67 68 68 69 71 73 73 72 73 73 72 71
68 69 70 71 73 75 76 76 76 77 78 78 79 80 80 80 80 80 79 78 78 78 79 78 76 76 75 75 76 76 75 74 73 74 73 72 73 73 72 70 68 68 69 71 72 72 73 74 75 76 77 76
68 69 71 72 74 75 76 77 78 80 82 82 82 83 83 82 81 80 80 80 80 80 80 80 78 77 77 77 78 79 79 78 77 78 78 77 77 77 76 75 73 71 71 72 73 73 75 76 77 79 80 80
68 69 71 73 75 76 77 78 79 82 84 84 85 86 86 84 81 79 81 83 82 82 82 82 82 79 79 79 79 80 81 80 81 81 82 82 81 81 79 79 78 76 74 74 74 74 76 78 80 81 82 83
67 69 71 73 75 77 79 80 81 83 85 86 87 89 88 87 85 82 81 86 88 87 85 85 85 83 82 81 81 82 82 82 83 84 84 85 84 83 82 81 82 79 76 74 74 75 76 78 82 85 85 85
66 68 70 73 75 77 79 80 82 85 87 88 89 90 91 90 88 86 83 85 90 92 90 89 89 88 86 85 85 85 85 85 86 86 86 87 87 86 84 83 83 83 80 77 74 75 76 77 80 84 87 88
66 68 70 72 75 77 79 81 83 86 88 89 90 91 93 92 91 90 87 86 89 93 95 93 92 92 90 89 87 87 87 87 88 89 90 90 89 88 87 85 84 85 85 83 80 77 76 77 78 81 85 87
66 68 70 72 73 76 79 82 84 86 89 89 90 92 93 93 92 92 91 89 89 91 95 96 95 94 92 91 91 90 90 90 90 92 93 93 93 92 91 89 88 88 87 87 86 84 81 80 79 80 82 85
64 67 70 72 73 75 78 82 84 86 89 90 91 92 92 93 94 94 93 92 91 91 93 97 99 97 95 93 93 94 94 94 94 94 95 96 96 96 95 93 92 91 91 90 89 89 88 86 84 84 84 85
64 66 69 72 74 75 78 81 85 87 89 91 92 93 94 94 95 96 95 96 95 94 93 96 100 101 99 97 96 95 96 97 97 97 97 98 98 98 98 97 95 94 93 93 93 92 92 91 90 90 89 89
65 67 69 71 73 75 78 80 83 86 89 92 93 94 95 97 97 97 97 98 98 98 97 97 99 102 103 102 100 97 97 98 99 100 100 100 100 101 101 100 99 98 96 96 95 95 95 95 94 94 94 94
68 69 70 71 72 75 77 79 81 84 88 92 95 96 97 98 99 99 99 99 100 101 101 102 101 101 103 105 105 102 100 99 100 102 102 102 102 102 103 103 102 101 101 100 98 97 97 98 97 97 96 96
69 70 72 72 73 75 77 79 81 83 86 89 93 96 99 100 100 100 101 101 103 103 103 104 104 102 103 105 107 107 105 103 102 103 104 104 104 104 105 105 105 104 104 104 104 102 100 100 99 98 98 98
71 72 73 74 74 76 79 80 81 82 85 87 91 94 98 100 101 102 103 103 105 106 105 105 105 105 106 105 106 109 111 110 107 105 105 106 106 107 108 107 107 106 106 106 107 107 105 104 102 101 100 99
74 74 74 75 76 78 80 82 82 83 84 87 89 92 95 98 100 102 104 105 106 108 108 107 107 107 108 108 107 109 113 115 114 111 109 108 109 110 111 110 109 109 108 108 109 110 109 107 105 104 104 103
77 77 77 77 78 79 81 84 85 84 85 87 89 91 93 95 98 101 103 106 108 109 110 110 110 109 109 109 109 110 111 114 117 117 115 113 112 112 112 113 113 113 112 112 112 111 110 109 109 108 107 107
80 80 80 80 80 81 82 84 86 87 87 88 89 91 92 95 97 99 101 104 107 109 110 111 111 112 111 111 111 112 113 113 116 119 121 119 117 115 115 115 115 116 116 115 114 114 113 112 112 110 109 110
82 83 83 83 83 84 84 86 87 88 89 90 91 92 93 95 96 98 100 102 104 107 110 111 112 113 114 113 113 113 114 115 115 118 121 123 123 121 119 118 118 117 117 117 117 117 116 116 114 113 113 114
85 85 85 86 86 86 87 88 89 90 91 92 93 94 94 95 97 98 100 101 103 105 107 110 112 114 115 115 115 115 115 117 118 118 119 122 124 126 125 124 122 120 119 119 120 120 120 120 119 118 118 118
89 88 88 88 89 89 89 90 91 92 92 93 95 96 97 97 98 99 100 101 103 104 106 107 110 112 114 116 117 117 117 118 119 121 121 121 123 126 129 129 127 125 124 123 123 123 124 124 123 123 122 121
Wind_Direction
246 243 239 237 235 231 229 229 230 233 236 235 233 233 233 236 238 239 241 244 245 242 241 242 245 247 247 246 244 242 241 240 240 240 240 240 239 240 240 240 240 240 239 239 239 240 240 241 241 242 243 244
246 244 241 238 238 236 233 233 234 235 236 236 235 234 233 233 236 238 240 243 244 244 243 244 246 247 248 248 247 245 243 241 241 240 240 240 240 240 240 241 241 241 241 241 241 241 241 242 242 243 244 245
244 242 240 238 239 238 236 237 239 240 240 240 239 238 237 234 233 236 238 241 243 243 243 245 246 247 248 248 248 247 246 243 242 242 241 241 241 241 241 241 241 242 242 242 242 243 243 243 243 243 244 245
243 241 241 240 239 239 239 239 239 240 241 242 242 242 241 237 235 235 237 241 243 245 244 245 246 246 247 247 247 247 246 244 243 242 241 241 241 241 242 242 242 242 242 242 243 243 243 243 243 244 244 245
242 242 242 241 239 239 239 240 240 240 241 243 244 244 244 243 241 238 239 241 244 246 246 246 247 248 247 247 245 244 244 243 241 240 239 239 240 241 241 242 242 242 243 243 243 243 243 243 243 244 245 246
241 241 241 241 240 239 238 239 240 241 242 242 243 244 245 246 246 243 240 241 242 244 246 247 248 249 248 245 243 241 240 239 238 238 238 238 239 240 240 241 241 242 242 242 243 243 243 244 244 244 245 245
240 240 240 239 239 238 238 239 240 241 242 243 244 244 245 246 246 245 243 243 242 242 245 247 247 247 246 243 239 237 235 234 235 237 238 239 239 240 241 241 240 240 240 241 241 242 242 243 243 244 244 244
241 240 239 238 238 237 237 237 239 241 242 244 245 245 245 246 246 245 244 244 243 242 243 244 244 244 243 240 236 233 233 232 233 235 239 242 242 242 241 241 239 237 235 235 235 236 238 241 242 243 243 244
241 241 239 238 237 236 236 236 237 239 241 243 244 245 245 245 245 245 244 243 243 243 242 241 241 241 240 240 236 229 229 231 231 232 237 241 244 244 243 241 239 236 232 229 228 229 232 237 241 243 245 246
241 242 241 239 237 236 235 235 236 237 239 241 242 244 245 245 244 244 244 243 243 243 242 240 239 238 238 238 235 229 228 229 229 228 230 235 240 243 245 242 238 235 233 231 229 228 228 231 235 238 242 246
242 242 242 241 239 237 235 234 234 235 237 239 241 241 242 243 243 243 243 243 243 243 242 240 238 237 236 236 234 231 229 228 227 227 227 231 235 240 244 243 239 235 235 235 233 231 228 227 230 233 234 239
243 242 241 241 241 240 238 235 234 234 235 236 238 240 240 241 241 242 242 242 242 242 242 241 238 237 236 235 234 231 230 229 227 227 227 229 232 236 240 243 242 238 237 238 237 235 231 228 229 231 232 233
245 243 241 241 241 241 241 238 236 234 234 234 235 237 239 239 239 238 239 241 242 241 242 242 240 238 236 235 233 231 231 230 227 226 228 229 232 234 236 237 240 241 241 241 241 239 236 233 231 230 232 233
249 246 243 241 240 241 241 241 239 237 236 234 234 235 236 237 238 237 236 238 241 242 242 243 242 240 238 236 234 231 231 231 229 227 227 229 231 233 234 234 235 238 241 242 243 242 240 238 236 233 232 233
250 248 246 243 242 241 241 241 241 240 240 238 236 236 236 236 237 236 235 235 238 241 242 242 243 242 241 239 236 233 231 231 231 229 227 228 230 232 233 233 233 235 238 241 242 242 242 241 239 237 236 235
250 249 247 246 244 242 242 241 241 241 241 240 239 238 237 237 236 235 234 233 234 237 239 240 242 242 241 240 238 235 232 232 232 231 229 229 230 232 233 234 234 234 236 239 241 242 242 242 241 240 239 239
250 248 247 246 245 244 242 242 242 242 242 242 242 241 240 239 237 235 234 233 232 233 236 238 240 240 240 240 239 236 233 232 232 232 232 231 231 232 234 235 235 235 236 236 238 240 242 242 242 241 241 241
253 250 248 246 245 245 244 243 242 243 243 243 243 243 243 242 240 238 235 234 233 233 233 235 238 239 240 239 239 238 235 232 232 232 233 233 233 233 235 236 237 237 237 237 236 237 239 241 242 242 242 242
254 253 251 248 245 244 245 244 243 243 244 244 243 244 244 244 243 241 239 236 235 234 233 234 235 237 239 239 239 238 237 234 232 232 233 233 234 234 236 238 239 239 239 239 238 237 238 239 240 241 242 242
253 253 252 251 248 244 243 244 244 244 244 244 244 244 245 245 244 243 241 239 237 236 235 234 234 235 236 238 238 238 237 236 233 233 233 234 235 235 236 238 240 241 241 240 240 239 239 239 240 240 241 242
252 252 251 251 251 248 244 242 242 243 244 244 244 244 244 245 245 244 243 241 239 237 237 236 235 235 234 235 237 238 238 237 235 234 233 234 235 236 236 238 239 241 242 242 242 242 241 241 241 241 242 242
252 251 251 250 251 250 248 245 243 242 243 244 244 244 244 244 244 244 244 243 241 239 237 237 236 235 235 234 235 237 238 238 237 235 234 234 235 236 237 238 239 240 241 242 242 243 243 243 243 243 243 244
255 252 250 250 250 250 249 248 246 244 242 242 243 244 244 244 244 244 244 244 243 241 239 237 236 236 236 235 235 235 236 237 238 237 236 235 235 237 238 239 239 239 240 241 241 242 242 243 244 244 245 245
257 255 252 250 249 249 249 249 248 247 245 243 242 243 243 244 244 244 244 244 244 243 241 239 238 237 236 236 236 236 236 236 237 238 237 237 236 237 238 239 240 240 240 241 241 241 241 242 242 243 244 245
258 256 255 252 250 249 249 249 248 248 248 246 245 243 243 243 243 243 244 244 245 245 244 242 240 238 236 236 236 236 236 236 236 237 237 237 237 237 238 239 240 241 241 241 241 242 242 241 242 242 242 243
259 257 255 254 252 251 250 249 248 247 247 248 247 246 245 244 243 243 243 243 244 245 245 244 242 240 237 236 235 236 237 236 236 236 236 237 237 238 238 238 239 240 241 241 242 242 242 242 242 242 242 242
261 259 256 255 253 252 251 250 249 248 247 247 248 247 247 246 245 244 243 243 243 244 244 245 245 243 241 238 236 235 236 237 237 236 236 236 237 237 238 239 239 240 240 241 242 243 243 243 243 243 243 242
261 260 258 256 254 252 251 250 250 249 247 247 247 247 247 247 247 246 245 244 244 244 244 244 245 245 244 242 239 236 236 236 237 237 237 237 237 237 237 238 239 240 240 241 242 242 243 243 243 243 243 243
262 260 259 258 256 254 252 251 250 249 248 247 246 246 247 247 247 247 247 246 245 244 244 244 244 244 244 244 242 240 237 236 237 238 238 238 237 237 237 237 238 239 240 241 241 242 242 243 243 243 242 243
262 260 259 258 257 255 253 252 251 249 248 247 247 246 246 246 247 247 247 247 246 245 245 244 244 244 244 244 243 242 240 237 236 237 238 238 238 238 238 238 238 238 238 240 240 241 242 242 242 242 243 243
263 261 259 258 257 256 254 253 252 251 249 248 247 246 246 246 246 246 247 247 247 247 246 246 245 245 245 244 244 243 242 240 238 237 237 238 239 239 239 239 239 238 238 238 240 240 241 241 242 242 243 243
Height
10652 10652 10654 10654 10654 10655 10655 10654 10654 10653 10655 10657 10659 10660 10662 10664 10665 10667 10667 10667 10669 10673 10675 10676 10676 10677 10678 10679 10681 10682 10686 10689 10691 10693 10696 10698 10701 10704 10707 10709 10713 10715 10718 10722 10725 10730 10735 10739 10742 10745 10747 10748
10643 10645 10646 10647 10646 10648 10648 10645 10645 10647 10648 10649 10650 10651 10653 10656 10657 10659 10660 10660 10662 10666 10668 10669 10670 10670 10671 10673 10675 10676 10678 10682 10684 10686 10689 10690 10693 10696 10699 10702 10705 10708 10712 10715 10719 10723 10727 10731 10735 10739 10740 10741
10634 10635 10635 10636 10637 10639 10640 10640 10642 10644 10644 10643 10644 10646 10647 10649 10650 10651 10653 10652 10654 10658 10661 10662 10663 10664 10665 10666 10669 10670 10671 10674 10676 10678 10682 10683 10685 10689 10691 10694 10697 10701 10705 10709 10713 10716 10719 10723 10727 10732 10733 10733
10624 10624 10625 10628 10629 10631 10633 10634 10637 10638 10638 10638 10639 10640 10641 10643 10645 10646 10647 10647 10649 10652 10655 10656 10658 10658 10659 10660 10662 10663 10664 10667 10669 10672 10674 10676 10678 10681 10684 10687 10690 10693 10698 10702 10705 10707 10710 10714 10720 10724 10725 10725
10615 10616 10618 10621 10623 10625 10625 10627 10629 10630 10630 10632 10633 10635 10635 10637 10639 10642 10643 10644 10645 10646 10648 10651 10652 10653 10653 10653 10655 10656 10657 10659 10662 10665 10667 10669 10671 10674 10677 10679 10683 10686 10690 10694 10697 10699 10701 10706 10712 10715 10717 10717
10608 10609 10611 10613 10615 10618 10618 10620 10622 10622 10623 10624 10627 10629 10629 10629 10632 10636 10638 10639 10640 10640 10642 10644 10646 10646 10646 10647 10648 10649 10650 10652 10655 10658 10660 10661 10664 10666 10669 10672 10676 10679 10682 10685 10687 10690 10694 10699 10705 10708 10709 10709
10600 10601 10602 10605 10607 10609 10611 10613 10614 10615 10615 10616 10619 10621 10621 10622 10624 10628 10631 10633 10634 10634 10635 10637 10639 10639 10639 10640 10641 10642 10644 10646 10648 10652 10653 10655 10658 10660 10662 10665 10668 10671 10675 10677 10680 10684 10688 10692 10697 10700 10701 10700
10592 10592 10594 10595 10598 10601 10603 10605 10606 10608 10609 10609 10611 10612 10613 10614 10616 10619 10623 10625 10627 10628 10628 10630 10632 10633 10633 10633 10634 10636 10638 10640 10642 10645 10647 10649 10651 10654 10656 10658 10661 10663 10666 10668 10671 10675 10680 10684 10689 10692 10693 10692
10583 10583 10585 10587 10589 10592 10594 10597 10598 10600 10601 10601 10602 10603 10604 10606 10607 10610 10614 10617 10619 10620 10621 10622 10625 10627 10627 10627 10629 10630 10632 10634 10636 10640 10642 10643 10646 10647 10650 10652 10654 10656 10658 10659 10661 10665 10670 10675 10680 10684 10686 10686
10575 10575 10577 10579 10580 10582 10585 10587 10589 10591 10592 10593 10593 10594 10595 10596 10598 10602 10606 10609 10610 10612 10613 10614 10616 10619 10620 10621 10623 10624 10625 10627 10630 10633 10635 10638 10640 10641 10643 10646 10648 10650 10651 10651 10652 10656 10660 10665 10669 10674 10677 10679
10568 10569 10571 10571 10572 10573 10575 10578 10580 10581 10583 10584 10584 10585 10585 10586 10589 10594 10598 10600 10601 10603 10604 10606 10607 10610 10612 10614 10616 10618 10618 10620 10623 10625 10628 10630 10633 10635 10637 10640 10642 10644 10645 10646 10646 10649 10652 10656 10659 10663 10667 10669
10560 10562 10563 10564 10564 10565 10567 10569 10569 10570 10572 10573 10574 10574 10575 10577 10581 10585 10588 10591 10593 10594 10594 10596 10598 10600 10603 10606 10608 10610 10611 10613 10615 10617 10620 10622 10625 10628 10631 10633 10635 10637 10639 10640 10642 10643 10646 10648 10650 10654 10657 10659
10551 10553 10555 10556 10556 10557 10559 10560 10560 10560 10560 10560 10561 10563 10565 10567 10570 10575 10579 10582 10584 10584 10584 10587 10590 10592 10594 10596 10599 10601 10602 10605 10607 10609 10611 10614 10616 10619 10622 10625 10627 10630 10632 10634 10636 10638 10640 10641 10642 10645 10649 10651
10543 10545 10547 10547 10547 10549 10551 10552 10552 10551 10549 10549 10550 10552 10554 10556 10561 10566 10572 10574 10575 10576 10576 10578 10581 10584 10586 10588 10590 10592 10594 10597 10599 10600 10602 10605 10607 10609 10612 10615 10618 10621 10624 10625 10628 10631 10633 10634 10636 10638 10641 10643
10534 10537 10539 10539 10539 10541 10541 10543 10544 10542 10541 10542 10542 10542 10544 10548 10553 10558 10563 10566 10567 10568 10569 10570 10572 10575 10578 10580 10583 10585 10588 10590 10591 10593 10595 10596 10598 10600 10603 10606 10609 10612 10615 10617 10620 10623 10625 10627 10629 10631 10633 10635
10526 10528 10529 10530 10532 10533 10533 10534 10536 10533 10532 10533 10533 10533 10535 10538 10542 10546 10551 10554 10556 10558 10559 10561 10562 10565 10569 10572 10574 10577 10580 10582 10584 10585 10588 10589 10590 10592 10594 10597 10600 10603 10605 10609 10612 10614 10616 10618 10620 10622 10625 10626
10515 10517 10520 10521 10522 10524 10524 10526 10526 10523 10523 10524 10524 10525 10526 10528 10531 10535 10539 10541 10543 10546 10548 10550 10551 10554 10557 10561 10563 10567 10570 10573 10575 10577 10580 10581 10583 10585 10586 10589 10592 10594 10597 10600 10603 10605 10607 10609 10611 10613 10616 10617
10505 10507 10509 10511 10513 10514 10515 10516 10516 10514 10514 10515 10516 10516 10516 10520 10523 10527 10529 10531 10533 10534 10537 10540 10541 10543 10547 10551 10554 10557 10560 10563 10565 10566 10569 10572 10574 10576 10578 10581 10584 10586 10589 10591 10594 10596 10598 10599 10602 10604 10607 10608
10496 10497 10498 10499 10502 10504 10505 10506 10506 10505 10504 10505 10507 10507 10509 10513 10516 10518 10520 10523 10524 10525 10528 10530 10532 10534 10537 10541 10544 10546 10549 10552 10554 10556 10558 10561 10564 10567 10570 10573 10576 10578 10580 10583 10585 10588 10589 10591 10593 10595 10597 10599
10488 10488 10487 10487 10490 10493 10494 10494 10495 10495 10494 10495 10498 10498 10500 10503 10504 10506 10510 10514 10516 10517 10519 10520 10522 10524 10527 10530 10532 10534 10538 10541 10543 10545 10548 10551 10554 10557 10560 10564 10567 10569 10571 10573 10577 10579 10581 10583 10585 10586 10588 10589
10479 10478 10476 10476 10477 10479 10481 10482 10483 10484 10483 10484 10486 10487 10488 10490 10491 10494 10498 10500 10503 10507 10509 10510 10512 10514 10517 10519 10520 10523 10526 10529 10532 10535 10537 10540 10543 10547 10550 10553 10556 10558 10560 10563 10567 10569 10571 10573 10575 10577 10579 10581
10468 10467 10466 10466 10466 10467 10468 10469 10471 10473 10473 10472 10473 10475 10476 10476 10479 10481 10484 10486 10489 10494 10497 10498 10500 10503 10506 10508 10510 10513 10516 10519 10521 10524 10526 10530 10534 10537 10539 10541 10544 10547 10548 10551 10555 10558 10560 10562 10564 10567 10568 10571
10457 10457 10457 10457 10457 10456 10456 10457 10459 10460 10461 10460 10460 10462 10463 10464 10466 10469 10471 10473 10475 10478 10482 10484 10487 10491 10495 10498 10501 10504 10506 10508 10510 10512 10516 10521 10525 10527 10529 10529 10532 10535 10536 10538 10541 10545 10547 10549 10552 10556 10557 10560
10446 10446 10446 10447 10447 10445 10444 10445 10446 10447 10448 10448 10449 10449 10450 10452 10454 10456 10459 10460 10460 10462 10468 10471 10475 10481 10484 10486 10490 10494 10496 10498 10499 10500 10505 10511 10514 10516 10517 10517 10519 10523 10524 10526 10528 10532 10536 10537 10540 10544 10547 10549
10435 10435 10435 10436 10437 10435 10433 10433 10434 10435 10435 10435 10436 10436 10437 10439 10441 10444 10446 10447 10447 10449 10453 10457 10461 10466 10469 10472 10478 10481 10482 10484 10487 10490 10494 10499 10501 10503 10504 10506 10509 10512 10514 10515 10517 10519 10522 10525 10530 10535 10537 10538
10422 10424 10424 10424 10425 10424 10422 10421 10423 10424 10424 10423 10423 10424 10425 10426 10427 10430 10432 10434 10435 10435 10437 10441 10445 10450 10453 10458 10464 10466 10466 10470 10475 10477 10480 10485 10488 10489 10491 10495 10499 10501 10503 10503 10504 10506 10511 10516 10521 10523 10525 10527
10409 10410 10412 10412 10413 10413 10411 10409 10410 10412 10413 10411 10410 10411 10412 10412 10413 10416 10418 10419 10421 10422 10424 10426 10431 10435 10439 10445 10450 10452 10454 10458 10461 10464 10467 10470 10473 10475 10479 10484 10487 10489 10490 10491 10494 10497 10502 10506 10507 10511 10515 10517
10396 10396 10397 10399 10399 10399 10399 10397 10397 10399 10400 10400 10399 10399 10400 10399 10399 10401 10403 10405 10407 10409 10411 10413 10417 10421 10424 10430 10435 10438 10441 10445 10448 10450 10452 10455 10458 10462 10466 10470 10472 10474 10477 10481 10485 10487 10490 10493 10495 10502 10504 10501
10383 10382 10382 10383 10384 10385 10385 10385 10385 10385 10386 10387 10387 10387 10387 10386 10386 10387 10388 10390 10393 10395 10396 10398 10402 10404 10407 10413 10418 10423 10427 10431 10434 10435 10437 10440 10445 10449 10451 10453 10456 10461 10465 10469 10471 10474 10477 10480 10484 10489 10487 10485
10367 10368 10367 10368 10368 10369 10370 10370 10370 10371 10372 10373 10374 10374 10374 10374 10374 10374 10374 10375 10377 10380 10381 10384 10386 10388 10391 10396 10401 10405 10409 10414 10418 10420 10423 10426 10429 10432 10434 10436 10442 10449 10452 10453 10455 10459 10462 10464 10469 10471 10470 10474
10350 10351 10352 10352 10352 10353 10354 10355 10355 10355 10357 10359 10359 10360 10361 10362 10361 10361 10361 10362 10363 10365 10367 10369 10371 10374 10377 10380 10383 10387 10391 10396 10400 10404 10407 10410 10413 10416 10418 10422 10429 10433 10435 10439 10442 10443 10444 10447 10452 10456 10456 10461